| time (UTC) | temp C | wind direction | speed KPH | gust KPH | rain 1hr cm | rain 24hr cm | rain mn cm | humidity % | barometer mb |
| 20260901233435 | 35 | 165 | 12.9 | 20.9 | 0.00 | 0.00 | 0.00 | 35 | 1015.5 |
| 20260901232435 | 36 | 159 | 9.7 | 16.1 | 0.00 | 0.00 | 0.00 | 34 | 1015.7 |
| 20260901231435 | 36 | 121 | 6.4 | 12.9 | 0.00 | 0.00 | 0.00 | 34 | 1015.7 |
| 20260901230435 | 36 | 101 | 6.4 | 12.9 | 0.00 | 0.00 | 0.00 | 33 | 1015.9 |
| 20260901225435 | 36 | 149 | 8.0 | 14.5 | 0.00 | 0.00 | 0.00 | 32 | 1015.9 |
| 20260901224435 | 36 | 117 | 9.7 | 16.1 | 0.00 | 0.00 | 0.00 | 32 | 1015.9 |
| 20260901223435 | 37 | 155 | 11.3 | 17.7 | 0.00 | 0.00 | 0.00 | 31 | 1015.7 |
| 20260901222435 | 37 | 155 | 9.7 | 17.7 | 0.00 | 0.00 | 0.00 | 30 | 1015.9 |
| 20260901221433 | 36 | 123 | 4.8 | 12.9 | 0.00 | 0.00 | 0.00 | 31 | 1015.6 |
| 20260901220432 | 37 | 144 | 6.4 | 14.5 | 0.00 | 0.00 | 0.00 | 30 | 1015.9 |
| 20260901215910 | 37 | 164 | 11.3 | 20.9 | 0.00 | 0.00 | 0.00 | 30 | 1015.7 |
| 20260901214433 | 36 | 134 | 3.2 | 8.0 | 0.00 | 0.00 | 0.00 | 32 | 1015.9 |
| 20260901212912 | 36 | 184 | 6.4 | 14.5 | 0.00 | 0.00 | 0.00 | 32 | 1016.2 |
| 20260901211430 | 36 | 201 | 11.3 | 20.9 | 0.00 | 0.00 | 0.00 | 32 | 1016.3 |
| 20260901210431 | 36 | 161 | 6.4 | 16.1 | 0.00 | 0.00 | 0.00 | 33 | 1016.4 |
| 20260901205430 | 37 | 142 | 9.7 | 17.7 | 0.00 | 0.00 | 0.00 | 32 | 1016.6 |
| 20260901203430 | 37 | 164 | 9.7 | 17.7 | 0.00 | 0.00 | 0.00 | 33 | 1016.6 |
| 20260901202429 | 37 | 207 | 6.4 | 24.1 | 0.00 | 0.00 | 0.00 | 33 | 1016.7 |
| 20260901201916 | 36 | 178 | 12.9 | 22.5 | 0.00 | 0.00 | 0.00 | 33 | 1017.0 |
| 20260901200431 | 36 | 153 | 8.0 | 19.3 | 0.00 | 0.00 | 0.00 | 36 | 1016.9 |
| 20260901195430 | 36 | 192 | 11.3 | 25.7 | 0.00 | 0.00 | 0.00 | 35 | 1017.1 |
| 20260901194429 | 36 | 103 | 4.8 | 17.7 | 0.00 | 0.00 | 0.00 | 35 | 1017.2 |
| 20260901193429 | 35 | 165 | 1.6 | 6.4 | 0.00 | 0.00 | 0.00 | 40 | 1017.2 |
| 20260901192427 | 34 | 129 | 3.2 | 8.0 | 0.00 | 0.00 | 0.00 | 40 | 1017.3 |
| 20260901191424 | 34 | 128 | 3.2 | 9.7 | 0.00 | 0.00 | 0.00 | 41 | 1017.5 |
| 20260901190424 | 34 | 115 | 3.2 | 11.3 | 0.00 | 0.00 | 0.00 | 41 | 1017.7 |
| 20260901185425 | 35 | 100 | 3.2 | 11.3 | 0.00 | 0.00 | 0.00 | 40 | 1017.7 |
| 20260901184423 | 35 | 165 | 8.0 | 17.7 | 0.00 | 0.00 | 0.00 | 40 | 1017.7 |
| 20260901183424 | 35 | 355 | 6.4 | 11.3 | 0.00 | 0.00 | 0.00 | 40 | 1017.9 |
| 20260901182419 | 35 | 194 | 4.8 | 12.9 | 0.00 | 0.00 | 0.00 | 43 | 1018.2 |
| 20260901181420 | 35 | 231 | 3.2 | 12.9 | 0.00 | 0.00 | 0.00 | 42 | 1018.3 |
| 20260901180902 | 35 | 186 | 4.8 | 14.5 | 0.00 | 0.00 | 0.00 | 41 | 1018.6 |
| 20260901175417 | 35 | 199 | 9.7 | 16.1 | 0.00 | 0.00 | 0.00 | 41 | 1018.8 |
| 20260901174418 | 34 | 202 | 6.4 | 16.1 | 0.00 | 0.00 | 0.00 | 44 | 1018.9 |
| 20260901173417 | 34 | 186 | 6.4 | 16.1 | 0.00 | 0.00 | 0.00 | 43 | 1019.1 |
| 20260901172906 | 33 | 126 | 9.7 | 19.3 | 0.00 | 0.00 | 0.00 | 45 | 1019.1 |
| 20260901171418 | 35 | 199 | 9.7 | 19.3 | 0.00 | 0.00 | 0.00 | 43 | 1019.2 |
| 20260901170422 | 34 | 199 | 6.4 | 14.5 | 0.00 | 0.00 | 0.00 | 45 | 1019.5 |
| 20260901165903 | 34 | 217 | 6.4 | 16.1 | 0.00 | 0.00 | 0.00 | 45 | 1019.5 |
| 20260901164417 | 33 | 232 | 8.0 | 14.5 | 0.00 | 0.00 | 0.00 | 46 | 1019.7 |
| 20260901163414 | 33 | 169 | 12.9 | 22.5 | 0.00 | 0.00 | 0.00 | 46 | 1019.7 |
| 20260901162413 | 33 | 190 | 11.3 | 17.7 | 0.00 | 0.00 | 0.00 | 48 | 1019.8 |
| 20260901161415 | 33 | 171 | 6.4 | 19.3 | 0.00 | 0.00 | 0.00 | 48 | 1019.8 |
| 20260901160413 | 33 | 188 | 9.7 | 16.1 | 0.00 | 0.00 | 0.00 | 51 | 1019.9 |
| 20260901155413 | 33 | 172 | 11.3 | 24.1 | 0.00 | 0.00 | 0.00 | 49 | 1020.0 |
| 20260901154413 | 32 | 173 | 8.0 | 16.1 | 0.00 | 0.00 | 0.00 | 50 | 1020.0 |
| 20260901153414 | 32 | 195 | 4.8 | 16.1 | 0.00 | 0.00 | 0.00 | 51 | 1020.0 |
| 20260901152413 | 32 | 225 | 8.0 | 16.1 | 0.00 | 0.00 | 0.00 | 53 | 1019.8 |
| 20260901151849 | 32 | 168 | 9.7 | 22.5 | 0.00 | 0.00 | 0.00 | 54 | 1019.9 |
| 20260901150415 | 31 | 194 | 11.3 | 20.9 | 0.00 | 0.00 | 0.00 | 54 | 1020.0 |
| 20260901145414 | 31 | 181 | 12.9 | 22.5 | 0.00 | 0.00 | 0.00 | 56 | 1019.8 |
| 20260901144413 | 31 | 216 | 11.3 | 20.9 | 0.00 | 0.00 | 0.00 | 57 | 1020.0 |
| 20260901143413 | 30 | 178 | 9.7 | 17.7 | 0.00 | 0.00 | 0.00 | 59 | 1019.9 |
| 20260901142413 | 30 | 207 | 8.0 | 17.7 | 0.00 | 0.00 | 0.00 | 59 | 1020.0 |
| 20260901141414 | 29 | 180 | 6.4 | 12.9 | 0.00 | 0.00 | 0.00 | 62 | 1019.9 |
| 20260901140415 | 28 | 173 | 6.4 | 12.9 | 0.00 | 0.00 | 0.00 | 63 | 1020.0 |
| 20260901135414 | 28 | 198 | 4.8 | 11.3 | 0.00 | 0.00 | 0.00 | 65 | 1019.9 |
| 20260901134416 | 27 | 205 | 3.2 | 8.0 | 0.00 | 0.00 | 0.00 | 67 | 1020.1 |
| 20260901133412 | 26 | 209 | 0.0 | 4.8 | 0.00 | 0.00 | 0.00 | 70 | 1020.1 |
| 20260901132415 | 25 | 157 | 0.0 | 0.0 | 0.00 | 0.00 | 0.00 | 72 | 1019.9 |
| 20260901131414 | 25 | 157 | 0.0 | 0.0 | 0.00 | 0.00 | 0.00 | 75 | 1019.8 |
| 20260901130413 | 25 | 157 | 0.0 | 0.0 | 0.00 | 0.00 | 0.00 | 75 | 1019.7 |
| 20260901125847 | 25 | 157 | 0.0 | 0.0 | 0.00 | 0.00 | 0.00 | 74 | 1019.7 |
| 20260901124415 | 25 | 126 | 0.0 | 0.0 | 0.00 | 0.00 | 0.00 | 75 | 1019.7 |
| 20260901123412 | 24 | 128 | 0.0 | 0.0 | 0.00 | 0.00 | 0.00 | 75 | 1019.4 |
| 20260901122413 | 24 | 179 | 0.0 | 1.6 | 0.00 | 0.00 | 0.00 | 74 | 1019.2 |
| 20260901121410 | 24 | 242 | 0.0 | 0.0 | 0.00 | 0.00 | 0.00 | 73 | 1019.1 |
| 20260901120410 | 25 | 242 | 0.0 | 0.0 | 0.00 | 0.00 | 0.00 | 72 | 1019.0 |
| 20260901115408 | 24 | 242 | 0.0 | 0.0 | 0.00 | 0.00 | 0.00 | 72 | 1019.0 |
| 20260901114408 | 25 | 242 | 0.0 | 0.0 | 0.00 | 0.00 | 0.00 | 71 | 1018.9 |
| 20260901113846 | 25 | 214 | 0.0 | 1.6 | 0.00 | 0.00 | 0.00 | 71 | 1018.8 |
| 20260901112406 | 25 | 196 | 0.0 | 3.2 | 0.00 | 0.00 | 0.00 | 71 | 1018.8 |
| 20260901111405 | 25 | 248 | 0.0 | 0.0 | 0.00 | 0.00 | 0.00 | 71 | 1018.8 |
| 20260901110405 | 25 | 186 | 0.0 | 0.0 | 0.00 | 0.00 | 0.00 | 70 | 1018.7 |
| 20260901105406 | 25 | 186 | 0.0 | 0.0 | 0.00 | 0.00 | 0.00 | 70 | 1018.6 |
| 20260901104839 | 25 | 242 | 0.0 | 0.0 | 0.00 | 0.00 | 0.00 | 69 | 1018.4 |
| 20260901103406 | 26 | 199 | 0.0 | 3.2 | 0.00 | 0.00 | 0.00 | 67 | 1018.6 |
| 20260901102844 | 26 | 178 | 0.0 | 3.2 | 0.00 | 0.00 | 0.00 | 67 | 1018.4 |
| 20260901101404 | 26 | 150 | 0.0 | 3.2 | 0.00 | 0.00 | 0.00 | 67 | 1018.3 |
| 20260901100404 | 25 | 159 | 0.0 | 1.6 | 0.00 | 0.00 | 0.00 | 68 | 1018.3 |
| 20260901095402 | 25 | 245 | 0.0 | 1.6 | 0.00 | 0.00 | 0.00 | 68 | 1018.3 |
| 20260901094402 | 25 | 245 | 0.0 | 0.0 | 0.00 | 0.00 | 0.00 | 68 | 1018.3 |
| 20260901093403 | 25 | 245 | 0.0 | 1.6 | 0.00 | 0.00 | 0.00 | 67 | 1018.3 |
| 20260901092840 | 26 | 245 | 0.0 | 0.0 | 0.00 | 0.00 | 0.00 | 67 | 1018.2 |
| 20260901090851 | 26 | 245 | 0.0 | 0.0 | 0.00 | 0.00 | 0.00 | 67 | 1018.2 |
| 20260901085400 | 26 | 245 | 0.0 | 0.0 | 0.00 | 0.00 | 0.00 | 67 | 1018.1 |
| 20260901083358 | 27 | 184 | 1.6 | 4.8 | 0.00 | 0.00 | 0.00 | 63 | 1018.0 |
| 20260901082355 | 27 | 158 | 3.2 | 4.8 | 0.00 | 0.00 | 0.00 | 63 | 1018.1 |
| 20260901081351 | 27 | 157 | 4.8 | 6.4 | 0.00 | 0.00 | 0.00 | 63 | 1017.9 |
| 20260901080350 | 27 | 161 | 3.2 | 6.4 | 0.00 | 0.00 | 0.00 | 63 | 1017.9 |
| 20260901075351 | 27 | 157 | 3.2 | 6.4 | 0.00 | 0.00 | 0.00 | 62 | 1018.0 |
| 20260901074349 | 26 | 146 | 1.6 | 6.4 | 0.00 | 0.00 | 0.00 | 62 | 1017.8 |
| 20260901073343 | 27 | 133 | 1.6 | 4.8 | 0.00 | 0.00 | 0.00 | 61 | 1017.9 |
| 20260901072346 | 27 | 166 | 1.6 | 4.8 | 0.00 | 0.00 | 0.00 | 60 | 1018.2 |
| 20260901071823 | 27 | 177 | 3.2 | 6.4 | 0.00 | 0.00 | 0.00 | 59 | 1018.0 |
| 20260901070339 | 27 | 182 | 3.2 | 6.4 | 0.00 | 0.00 | 0.00 | 59 | 1018.0 |
| 20260901065338 | 27 | 150 | 1.6 | 9.7 | 0.00 | 0.00 | 0.00 | 59 | 1017.9 |
| 20260901064340 | 26 | 151 | 1.6 | 3.2 | 0.00 | 0.00 | 0.00 | 60 | 1017.8 |
| 20260901063337 | 26 | 151 | 0.0 | 1.6 | 0.00 | 0.00 | 0.00 | 59 | 1017.8 |
| 20260901062815 | 26 | 151 | 1.6 | 3.2 | 0.00 | 0.00 | 0.00 | 59 | 1017.9 |
| 20260901061335 | 27 | 151 | 0.0 | 1.6 | 0.00 | 0.00 | 0.00 | 59 | 1017.8 |
| 20260901060337 | 27 | 151 | 0.0 | 3.2 | 0.00 | 0.00 | 0.00 | 57 | 1018.0 |
| 20260901055334 | 27 | 123 | 3.2 | 6.4 | 0.00 | 0.00 | 0.00 | 56 | 1017.9 |
| 20260901054336 | 28 | 121 | 4.8 | 9.7 | 0.00 | 0.00 | 0.00 | 54 | 1017.8 |
| 20260901053335 | 28 | 124 | 4.8 | 9.7 | 0.00 | 0.00 | 0.00 | 54 | 1017.7 |
| 20260901052335 | 28 | 138 | 6.4 | 12.9 | 0.00 | 0.00 | 0.00 | 53 | 1017.6 |
| 20260901051822 | 28 | 130 | 6.4 | 12.9 | 0.00 | 0.00 | 0.00 | 52 | 1017.7 |
| 20260901045336 | 28 | 133 | 6.4 | 12.9 | 0.00 | 0.00 | 0.00 | 51 | 1017.5 |
| 20260901044332 | 28 | 140 | 4.8 | 6.4 | 0.00 | 0.00 | 0.00 | 50 | 1017.6 |
| 20260901043332 | 28 | 134 | 4.8 | 6.4 | 0.00 | 0.00 | 0.00 | 50 | 1017.6 |
| 20260901042333 | 29 | 159 | 4.8 | 8.0 | 0.00 | 0.00 | 0.00 | 49 | 1017.5 |
| 20260901041332 | 29 | 134 | 6.4 | 11.3 | 0.00 | 0.00 | 0.00 | 48 | 1017.4 |
| 20260901040823 | 29 | 138 | 6.4 | 9.7 | 0.00 | 0.00 | 0.00 | 47 | 1017.5 |
| 20260901035333 | 29 | 140 | 6.4 | 9.7 | 0.00 | 0.00 | 0.00 | 46 | 1017.5 |
| 20260901034333 | 30 | 136 | 6.4 | 12.9 | 0.00 | 0.00 | 0.00 | 46 | 1017.5 |
| 20260901033815 | 30 | 134 | 6.4 | 11.3 | 0.00 | 0.00 | 0.00 | 45 | 1017.4 |
| 20260901032332 | 30 | 121 | 6.4 | 12.9 | 0.00 | 0.00 | 0.00 | 44 | 1017.4 |
| 20260901031330 | 30 | 174 | 8.0 | 12.9 | 0.00 | 0.00 | 0.00 | 44 | 1017.4 |
| 20260901030330 | 30 | 131 | 8.0 | 12.9 | 0.00 | 0.00 | 0.00 | 44 | 1017.3 |
| 20260901025330 | 30 | 157 | 8.0 | 14.5 | 0.00 | 0.00 | 0.00 | 43 | 1017.3 |
| 20260901024333 | 30 | 137 | 8.0 | 12.9 | 0.00 | 0.00 | 0.00 | 44 | 1017.2 |
| 20260901023330 | 30 | 130 | 8.0 | 12.9 | 0.00 | 0.00 | 0.00 | 44 | 1017.0 |
| 20260901022816 | 31 | 146 | 6.4 | 12.9 | 0.00 | 0.00 | 0.00 | 44 | 1016.8 |
| 20260901021331 | 31 | 128 | 6.4 | 11.3 | 0.00 | 0.00 | 0.00 | 43 | 1016.7 |
| 20260901020332 | 31 | 119 | 8.0 | 14.5 | 0.00 | 0.00 | 0.00 | 43 | 1016.5 |
| 20260901015329 | 31 | 134 | 8.0 | 11.3 | 0.00 | 0.00 | 0.00 | 42 | 1016.5 |
| 20260901014330 | 31 | 163 | 6.4 | 11.3 | 0.00 | 0.00 | 0.00 | 41 | 1016.3 |
| 20260901013329 | 32 | 134 | 6.4 | 11.3 | 0.00 | 0.00 | 0.00 | 40 | 1016.3 |
| 20260901012329 | 32 | 131 | 6.4 | 9.7 | 0.00 | 0.00 | 0.00 | 40 | 1016.2 |
| 20260901011328 | 32 | 140 | 6.4 | 11.3 | 0.00 | 0.00 | 0.00 | 40 | 1016.2 |
| 20260901010331 | 32 | 140 | 8.0 | 16.1 | 0.00 | 0.00 | 0.00 | 40 | 1016.0 |
| 20260901005329 | 33 | 121 | 4.8 | 9.7 | 0.00 | 0.00 | 0.00 | 38 | 1015.9 |
| 20260901004330 | 33 | 167 | 4.8 | 9.7 | 0.00 | 0.00 | 0.00 | 38 | 1015.7 |
| 20260901003330 | 33 | 160 | 6.4 | 11.3 | 0.00 | 0.00 | 0.00 | 37 | 1015.6 |
| 20260901002324 | 33 | 171 | 4.8 | 11.3 | 0.00 | 0.00 | 0.00 | 37 | 1015.6 |
| 20260901001809 | 34 | 174 | 6.4 | 9.7 | 0.00 | 0.00 | 0.00 | 36 | 1015.5 |
| 20260901000325 | 35 | 184 | 9.7 | 14.5 | 0.00 | 0.00 | 0.00 | 34 | 1015.5 |
| 20260831235804 | 35 | 180 | 9.7 | 14.5 | 0.00 | 0.00 | 0.00 | 33 | 1015.5 |
| 20260831234322 | 35 | 176 | 8.0 | 14.5 | 0.00 | 0.00 | 0.00 | 34 | 1015.6 |